Thursday, March 05, 2015
04:03 UTC
  |  Log In   |  Register Free
Airport Search:

Henderson Field Airport
(KACZ)

Henderson Field Airport Diagram
No Airport Diagram Available

FAA data valid effective January 08, 2015 - March 05, 2015 (unless otherwise noted).

 
 
 
 
 
 
 
 
 
 
 
 
 
 

Current Aviation Weather for Henderson Field Airport (KACZ)

METAR data is unavailable for ACZ. The nearest METAR location is at KDPL (17 nm NE from ACZ).

The most recent METAR observation for KDPL was updated at: 0312
METAR Summary (Translated METAR)
KDPL
050255Z AUTO 19004KT 10SM CLR 19/15 A2997 RMK AO2 T01850153
(17 nm NE from KACZ)
KOAJ
050315Z AUTO 21012G16KT 10SM CLR 18/15 A2998 RMK AO1
(20.4 nm NE from KACZ)
TAF Summary (Translated TAF)
KOAJ
(20.9 nm SE from KDPL)
042358Z 0500/0524 20015KT P6SM SCT050 FM050400 20008KT 3SM BR BKN010 FM050700 20006KT 2SM BR BKN007 FM051200 28008KT P6SM -RA BKN010 FM051600 02014G23KT 5SM -RA OVC007 AMD LTD TO CLD VIS AND WIND
  Airport Weather Conditions for KACZ

Current weather conditions are
not available for ACZ


The nearest NOAA weather station
is at DPL, (17 nm NE from ACZ)
  
 Current Weather at DPL
65° F
Fair
South winds at 3.5 mph
DPL NOAA Radar

Pressure: 29.96 in
Humidity: 81%
Wind: South at 3.5 MPH (3 KT)
Dew Point: 59.4°F
Visibility: 10.00 mi


Airport Weather Forecast for KACZ

Translated METAR and TAF for KDPL
Translated METAR for KDPL (0403 UTC 05 March 2015)
found at http://aviationweather.gov/adds/metars/
 
METAR text: KDPL 050355Z AUTO 20004KT 10SM CLR 18/16 A2997 RMK AO2 T01830155
Conditions at: KDPL (KENANSVILLE/DUPL, NC, US) observed 0355 UTC 05 March 2015
Temperature: 18.3°C (65°F)
Dewpoint: 15.5°C (60°F) [RH = 84%]
Pressure (altimeter): 29.97 inches Hg (1015.0 mb)
Winds: from the SSW (200 degrees) at 5 MPH (4 knots; 2.1 m/s)
Visibility: 10 or more miles (16+ km)
Ceiling: at least 12,000 feet AGL
Clouds: sky clear below 12,000 feet AGL
Weather: automated observation with no human augmentation;
there may or may not be significant weather present at this time
Translated TAF for KDPL

There is no translated TAF available for this airport

Find All Airport Services Find A Hotel Find A Rental Car Find A Golf Course Find A Restaurant $100 Hamburger



FBO's on the Field
FBO Company Facility Photos Services Transportation Aviation Fuel Prices: Prices include tax
Catering Weather Repair Courtesy Rental Type 100LL JetA JetA+ MOGAS 8087
 
Henderson Field

This FBO has not yet been rated
FS:Phillips 66
Last Updated: Feb-12
Login to update fuel prices
SS:
Contact Henderson FieldMore FBO Information
 
Add another FBO Facility Photos Catering Weather Repair Courtesy Rental Type 100LL JetA JetA+ MOGAS 8087
Services Transportation Aviation Fuel Prices: Prices include tax


model-print
model-print
model-print
model-print